Weather Roundup
Issued by NWS Chicago, IL

Home | Current Version | Previous Version | Graphics & Text | Print | Product List | Glossary On
Versions: 1 2 3 4 5 6 7 8 9 10 11 12 13 14 15 16 17 18 19 20 21 22 23 24 25 26 27 28 29 30 31 32 33 34 35 36 37 38 39 40 41 42 43 44 45 46 47 48 49 50
000
NZUS59 KLOT 312102
HRRLOT

CHICAGO AREA WEATHER ROUNDUP
NATIONAL WEATHER SERVICE CHICAGO/ROMEOVILLE IL
400 PM CDT MON AUG 31 2015

NOTE: "FAIR" INDICATES FEW OR NO CLOUDS BELOW 12,000 FEET WITH NO
SIGNIFICANT WEATHER AND/OR OBSTRUCTIONS TO VISIBILITY.

* THESE STATIONS ARE NOT UNDER NWS QUALITY CONTROL. THEY ALSO MAY NOT
  REPORT WEATHER SUCH AS PRECIPITATION OR FOG.

ILZ005-006-012>014-019>023-312200-
NORTHEAST ILLINOIS

CITY           SKY/WX    TMP DP  RH WIND       PRES   REMARKS
OHARE            N/A     85  67  54 SW6       30.01F HX  87
MIDWAY           N/A     86  68  54 SW6       30.01F HX  89
AURORA           N/A     85  70  60 S7        30.03F HX  89
LANSING*         N/A     85  67  54 SW7       30.03F HX  88
WAUKEGAN         N/A     75  66  73 SE7       30.03F
DUPAGE AIRPORT PTSUNNY   84  70  62 S7        30.02F HX  88
WHEELING         N/A     82  68  62 E6        30.03F HX  85
NORTHERLY IS     N/A     75  68  78 NE3         N/A
$$

WIZ051-052-058>065-066-070>072-312200-
SOUTHEAST WISCONSIN

CITY           SKY/WX    TMP DP  RH WIND       PRES   REMARKS
MILWAUKEE      PTSUNNY   76  66  71 SE13      30.02F
KENOSHA*         N/A     80  69  69 E10       30.03F HX  83
RACINE*          N/A     76  66  71 S9        30.04F
WAUKESHA       MOSUNNY   79  66  65 SW6       30.04F HX  81
$$

INZ001>003-010>013-019-020-312200-
NORTHWEST INDIANA

CITY           SKY/WX    TMP DP  RH WIND       PRES   REMARKS
GARY*          MOSUNNY   82  68  61 CALM      30.03F HX  85
MICHIGAN CITY* NOT AVBL
RENSSELAER*    NOT AVBL
$$

LMZ740>746-312200-
SOUTHERN LAKE MICHIGAN

STATION/POSITION TIME  SKY/WX   TEMP WIND        PRES    VSBY
                                AIR  DIR/SP/G
                 (UTC)          (F)  (DEG/KT/KT) (MB)    (MI)
HARRISON CRIB    2000            72  100/  8/  9   N/A
BURNHAM HARBOR   2100            75   60/  3/  4   N/A
CALUMET HARBOR   2000            74   50/  6/  8   N/A
BURNS HARBOR     2000            76   70/  8/  9 1017.9F
MICHIGAN CITY    2000            72   30/  7/  8   N/A
$$

ABBREVIATIONS USED IN REMARKS
   TC - TEMPERATURE IN CELSIUS
  WCI - WIND CHILL INDEX
   HX - HEAT INDEX
  VSB - VISIBILITY
$$


USA.gov is the U.S. government's official web portal to all federal, state and local government web resources and services.